Theta_e
339 342 341 334 333 335 335 342 342 341 341 341 341 341 342 341 342 341 341 341 341 340 336 332 326 326 330 332 334 334 330 328 332 335 337 338 337 336 336 337 338 338 338 339 339 339 340 340 339 339 339 339 339 338 335 333 328 324 321 320 326 333 336 336 337 338 339 339 340 340 340 341 339 334 332 333 333 333 334 337 338 339 334 330 333
337 340 343 333 333 336 335 342 342 342 341 341 341 341 341 341 341 341 341 340 340 337 331 326 324 329 335 337 336 337 334 329 328 331 335 337 337 336 337 338 339 339 339 339 339 339 339 339 340 340 339 338 338 336 333 334 331 326 323 320 320 326 332 335 336 337 337 338 338 339 340 341 338 333 333 334 334 333 334 337 338 336 328 323 327
336 339 344 333 334 337 336 342 341 342 342 341 341 340 341 341 340 339 340 338 338 335 330 327 329 334 337 338 337 337 337 335 332 331 333 336 336 336 337 338 338 339 339 339 339 338 339 339 339 339 338 338 337 334 333 333 332 329 326 324 321 322 325 330 332 333 333 333 335 338 340 341 338 335 335 334 334 331 330 331 332 329 324 322 321
336 338 344 334 333 337 338 342 341 342 342 342 341 340 340 339 339 337 338 336 336 335 333 333 335 338 338 339 338 338 338 338 337 336 335 335 336 336 337 337 338 339 339 339 338 338 338 339 338 337 337 337 335 332 332 331 332 331 327 327 325 324 323 324 326 328 329 330 334 339 340 341 339 338 335 332 331 329 327 326 325 325 324 323 322
336 339 345 336 333 337 339 341 341 341 342 342 340 341 340 339 338 336 336 336 337 336 336 336 338 339 340 340 339 339 339 338 338 337 337 336 337 336 337 336 338 339 339 339 339 339 339 338 337 336 336 335 333 331 331 330 330 330 330 329 328 327 326 325 324 324 324 325 333 338 339 341 341 339 335 331 330 328 327 327 326 325 325 326 325
337 340 345 338 334 337 338 341 341 341 341 341 340 340 340 339 337 334 333 335 337 338 338 338 339 339 339 339 339 340 339 339 338 338 337 337 337 336 336 336 338 339 339 339 339 339 338 337 336 335 334 333 331 329 329 329 328 329 330 330 330 329 328 328 327 326 324 323 330 336 337 340 341 340 336 335 333 331 331 330 328 325 325 330 330
339 340 344 341 338 339 338 341 341 341 341 341 340 339 339 339 338 334 331 332 334 337 338 338 338 339 339 340 340 339 339 339 338 338 337 337 337 337 337 337 338 338 339 339 339 339 337 336 335 334 333 331 330 329 329 328 327 326 326 327 328 328 328 327 327 327 327 327 330 333 335 337 340 340 338 338 337 337 337 334 330 326 324 329 332
340 340 343 342 341 340 338 340 341 341 341 340 339 339 338 338 338 334 332 331 331 335 337 337 338 339 339 339 340 340 340 339 339 338 337 338 337 337 337 337 338 338 339 339 338 337 336 334 333 333 332 331 331 330 330 328 324 321 320 320 320 320 320 320 322 324 326 328 331 333 334 336 337 339 338 338 339 339 339 337 335 330 324 327 334
340 341 342 342 341 340 339 339 340 341 341 340 339 339 338 338 338 336 335 333 332 335 337 338 337 338 339 339 340 340 340 339 339 338 337 337 337 337 336 336 337 338 338 338 337 335 334 332 332 331 331 331 332 331 328 324 319 314 310 308 308 307 307 309 310 314 322 326 330 332 333 335 335 337 338 337 338 338 337 337 338 335 328 327 332
340 340 341 342 341 340 339 339 340 340 340 339 339 339 339 339 339 338 338 337 335 336 337 338 338 338 340 340 340 339 340 339 338 337 336 336 336 336 336 336 336 336 337 336 335 333 332 331 330 330 330 331 331 328 323 316 309 304 301 300 300 300 300 300 301 307 317 325 329 330 328 331 335 337 338 336 337 336 335 336 339 337 332 329 329
338 339 340 342 341 341 339 338 339 340 340 339 340 340 340 340 339 339 339 339 338 337 337 338 339 339 340 340 339 339 340 338 337 336 335 335 335 335 335 335 335 335 335 335 334 332 331 330 329 328 328 328 325 320 312 305 301 300 299 300 300 300 300 299 305 309 314 323 327 329 329 329 334 337 336 334 335 335 333 334 335 335 334 334 333
337 338 339 341 340 340 339 338 339 340 340 339 340 339 339 339 339 339 338 339 338 338 338 338 340 340 340 340 339 339 339 338 337 335 334 334 333 333 333 333 333 333 332 333 332 330 329 328 327 327 326 322 315 309 302 300 299 300 299 300 300 300 301 299 304 308 311 321 323 327 331 331 334 335 334 333 334 334 333 334 335 335 336 337 336
336 338 338 340 340 339 339 339 339 340 340 340 340 339 339 339 338 338 338 338 338 338 338 338 340 340 340 340 340 339 338 337 336 335 334 333 333 332 331 332 332 331 330 330 330 327 327 327 326 326 323 315 305 301 299 299 299 299 299 299 300 299 300 299 301 305 309 317 320 326 331 330 332 332 333 333 333 333 334 335 336 336 336 336 337
336 337 337 339 339 338 338 338 339 340 340 340 339 337 338 339 337 337 337 337 338 338 338 338 339 339 340 339 339 339 338 337 335 334 333 332 332 330 330 331 330 330 329 328 328 325 326 325 325 324 318 305 299 299 299 299 299 299 300 299 300 299 299 299 300 302 306 313 318 325 329 328 329 330 331 331 332 332 332 333 334 335 336 336 336
336 336 335 336 337 336 336 338 339 340 340 338 337 336 336 336 336 335 335 336 337 338 338 338 339 339 339 339 338 338 337 335 334 333 332 331 329 328 329 329 328 328 327 326 326 325 325 324 325 322 309 299 298 299 299 299 299 299 299 299 299 299 299 299 301 304 307 313 320 324 327 327 327 329 329 328 329 330 330 331 332 333 334 334 335
336 335 334 336 337 336 336 337 339 339 339 337 336 335 334 334 334 334 335 336 337 337 337 338 339 339 339 338 338 337 336 334 333 332 330 329 327 326 328 328 327 326 326 325 325 325 324 324 323 315 300 298 299 298 299 299 299 299 299 299 299 298 299 299 302 308 308 310 318 324 325 324 326 327 327 327 327 327 328 329 330 331 332 332 332
336 334 334 336 337 337 337 337 338 338 337 337 335 334 333 332 333 334 334 335 336 337 337 338 338 338 338 337 337 335 334 333 332 331 329 328 325 325 326 326 326 325 325 324 324 324 323 324 319 305 297 299 298 298 299 298 299 298 298 298 298 298 298 298 298 303 303 303 313 322 322 321 323 325 326 326 325 325 326 326 327 328 329 330 330
335 335 334 336 337 337 337 336 337 337 336 336 335 334 333 332 333 334 334 335 335 337 337 337 337 337 337 336 335 334 333 332 331 330 329 327 325 324 324 325 325 324 324 324 324 323 323 322 311 298 298 298 298 298 298 298 298 298 298 298 298 298 297 298 298 298 299 304 314 318 316 317 321 324 324 324 324 324 324 325 325 326 327 328 328
332 334 334 335 336 336 337 336 336 336 336 336 336 334 332 332 333 334 335 335 336 337 337 337 337 337 336 335 334 332 331 331 330 330 328 326 325 324 323 324 324 324 324 323 323 322 322 318 304 297 298 297 298 298 298 298 299 298 298 298 297 297 297 297 297 298 299 306 316 313 306 312 318 321 322 322 322 323 323 323 324 324 325 326 326
329 332 333 334 335 336 336 336 335 335 336 336 335 335 333 333 334 334 335 336 336 337 337 336 336 336 335 333 333 332 330 330 329 329 328 326 324 323 322 323 323 323 323 323 322 322 320 312 299 298 298 298 299 298 299 299 299 299 299 298 298 297 297 297 296 299 299 302 310 306 303 310 315 320 322 321 321 321 320 321 322 323 324 324 324
330 331 332 334 335 335 336 336 336 335 335 334 334 334 333 333 334 334 334 335 336 336 336 335 335 334 333 332 331 331 329 329 329 328 328 326 324 322 321 322 323 323 322 322 321 321 317 305 297 298 297 298 299 299 300 300 300 299 299 298 298 297 296 297 296 298 299 302 304 300 301 308 314 320 321 319 320 319 318 320 321 322 322 323 322
331 331 331 333 334 335 335 335 335 335 335 334 333 333 333 333 333 334 334 334 335 335 335 334 334 333 332 331 331 330 329 328 328 327 326 325 323 321 320 320 322 322 321 321 320 320 315 301 297 298 298 299 298 299 300 299 300 299 299 298 297 297 296 296 297 296 297 301 301 296 300 305 311 319 320 319 318 318 318 320 321 321 321 321 321
329 331 330 331 333 334 334 335 335 335 334 334 334 333 333 333 333 333 333 333 334 334 334 334 333 333 332 331 331 329 328 327 327 326 325 324 321 319 318 318 320 322 320 319 319 319 314 301 297 298 298 298 297 299 300 299 300 299 299 298 297 297 297 296 296 296 296 297 297 296 298 300 307 316 320 319 319 318 319 319 320 320 320 320 320
328 329 329 330 331 332 333 334 334 334 334 334 334 333 332 333 333 332 332 332 333 333 333 333 332 331 331 331 330 329 328 328 327 326 324 323 320 317 318 316 319 322 318 317 318 318 313 302 297 298 297 297 298 298 299 299 299 299 298 298 298 297 297 296 296 296 295 295 296 295 296 297 302 313 319 319 318 317 317 319 319 320 320 319 320
326 328 330 330 329 329 332 333 334 334 334 334 333 333 332 332 332 331 331 331 331 331 331 331 330 329 329 329 329 328 328 327 326 325 324 322 319 317 317 317 319 321 317 315 317 315 307 299 297 297 297 297 298 298 299 299 299 298 298 298 298 297 297 296 296 295 295 295 296 295 295 296 298 309 317 318 318 316 316 319 319 319 319 319 319
323 327 329 330 328 326 329 332 333 333 334 333 332 332 332 331 331 331 331 331 330 330 330 330 330 329 329 329 328 328 327 326 325 324 322 321 320 318 318 319 320 320 315 315 317 311 302 298 297 296 296 297 298 299 299 299 299 298 298 298 297 297 297 296 296 295 295 295 295 295 295 295 295 304 316 318 317 317 317 319 318 318 319 318 318
321 325 326 328 329 327 326 329 331 332 333 333 332 332 331 331 331 331 331 331 331 330 330 329 330 329 329 329 327 327 326 326 324 322 321 321 321 319 319 319 319 319 314 315 317 310 302 298 297 296 296 297 298 299 299 299 299 298 298 298 297 296 296 296 295 295 295 295 295 295 294 295 295 301 314 318 317 317 317 317 317 317 318 318 317
320 323 324 325 327 326 324 326 328 329 331 332 332 332 331 331 331 331 330 330 330 330 330 329 329 329 329 328 327 326 326 325 324 322 321 321 321 320 320 319 319 319 314 315 316 310 302 298 296 296 296 297 298 298 298 298 298 298 297 297 296 296 295 295 295 294 294 294 295 295 294 295 295 299 311 317 317 317 317 316 316 316 317 317 317
319 320 322 323 324 325 323 323 325 326 329 330 331 331 330 330 330 330 330 330 330 330 330 329 329 329 328 328 327 326 325 325 323 322 321 320 320 319 319 319 319 318 315 314 313 307 302 298 296 296 296 297 298 298 298 298 297 297 297 296 296 295 295 295 294 294 294 294 294 295 294 294 295 300 309 315 316 316 315 315 315 316 316 316 316
318 319 320 321 322 323 323 322 322 324 326 328 329 330 330 330 329 329 329 329 329 329 329 329 328 328 327 327 326 325 325 324 323 321 321 319 319 319 318 318 317 316 314 312 309 305 301 297 296 296 296 297 297 298 298 297 297 297 296 296 295 294 294 294 294 294 294 294 294 294 294 294 295 299 307 313 315 315 315 314 315 315 315 315 315
317 317 318 320 320 321 323 322 322 323 325 327 327 328 329 329 329 329 329 329 328 329 328 328 328 327 326 326 325 325 324 324 322 320 320 318 317 317 316 316 315 313 311 309 305 302 300 297 296 296 296 297 297 298 297 297 296 296 295 295 294 294 294 294 294 294 294 295 294 294 294 295 297 301 306 311 313 313 313 314 314 314 315 314 314
316 316 316 317 319 320 321 322 322 322 323 325 326 326 328 328 328 329 329 329 328 328 328 328 327 326 325 325 325 324 324 323 321 319 318 317 316 315 314 313 312 311 309 306 303 301 299 297 296 296 297 297 297 298 297 296 296 295 294 294 293 293 293 294 293 293 295 295 295 296 296 296 300 304 306 309 311 312 312 313 313 313 314 313 313
316 317 317 316 318 319 320 321 321 321 321 323 325 325 327 328 328 328 329 328 328 327 328 327 326 326 325 324 324 323 323 323 321 319 317 316 314 313 312 311 310 308 306 304 301 300 298 297 296 296 297 297 297 297 296 296 295 294 294 293 293 293 293 293 294 294 294 294 296 298 299 300 304 306 306 307 308 310 312 312 312 313 313 313 312
315 316 317 316 317 317 319 320 320 321 321 322 324 325 326 327 327 327 328 327 327 327 326 327 325 325 324 323 322 322 323 323 321 319 316 314 313 311 310 309 308 306 305 303 301 299 298 296 296 296 296 297 297 296 296 296 295 294 293 293 293 293 293 293 294 294 294 295 297 298 300 303 305 306 306 306 306 307 310 311 311 312 312 312 311
313 314 315 316 316 316 317 317 318 319 321 321 323 325 325 326 326 326 327 326 326 326 326 325 325 324 323 322 322 322 322 322 321 319 317 314 312 311 309 308 307 305 304 302 300 299 297 296 295 296 296 296 296 295 295 295 295 294 293 293 294 293 293 293 293 294 294 295 297 297 299 300 302 303 304 304 304 305 306 307 308 309 311 311 311
312 312 314 315 315 316 315 315 315 316 318 320 321 323 324 324 325 325 325 325 325 325 325 324 324 323 322 321 321 321 322 321 320 319 317 314 312 310 308 307 306 304 303 301 300 300 297 295 295 295 295 296 296 295 295 296 295 294 294 295 295 294 295 295 293 294 295 296 297 297 298 297 298 299 299 299 300 302 303 304 305 307 309 310 310
312 312 312 314 315 314 315 314 315 316 317 319 320 321 322 323 324 324 323 324 324 324 324 323 323 322 321 320 320 320 320 321 320 319 317 314 312 310 308 306 305 303 302 301 300 299 297 295 295 295 295 296 296 295 296 297 296 295 294 295 295 295 296 296 295 295 295 296 296 296 296 296 296 296 295 295 295 296 299 301 304 305 306 308 308
311 311 311 312 313 313 314 314 314 315 317 318 319 320 321 321 322 322 322 322 322 322 322 322 321 321 320 319 319 319 319 320 319 318 317 314 312 310 307 306 304 303 301 300 299 298 297 296 295 295 296 297 297 295 296 297 296 295 295 295 295 296 297 296 295 295 295 296 295 295 295 294 294 294 293 293 292 292 293 295 298 300 302 303 304
309 309 309 310 311 312 313 314 313 314 316 317 318 319 319 320 320 320 320 320 320 320 320 320 319 319 319 318 318 317 318 318 318 317 316 314 311 309 307 305 304 302 301 300 299 298 297 296 295 295 296 297 297 296 296 297 296 295 295 295 295 296 296 295 294 295 296 295 294 294 294 293 293 293 292 292 292 291 291 291 293 294 297 299 300
307 307 308 308 309 310 311 313 312 312 314 316 317 318 318 318 318 318 318 318 318 318 318 318 317 317 317 316 316 316 316 316 316 316 315 313 311 309 306 304 303 301 300 299 298 297 297 296 295 295 296 297 297 296 297 296 295 295 295 295 294 295 294 294 295 295 295 294 293 293 293 292 292 292 292 291 291 291 290 290 291 291 292 294 297
305 305 306 306 307 308 309 311 312 311 312 314 316 317 317 317 317 317 317 317 316 316 316 316 315 315 315 314 314 314 314 314 314 314 314 313 310 308 306 304 302 300 299 298 298 297 296 296 296 295 296 296 297 297 297 295 295 296 295 295 294 293 293 293 294 294 294 293 293 293 292 292 291 290 290 290 290 289 289 289 290 291 291 293 296
303 304 304 305 305 306 307 309 310 310 310 312 314 315 315 316 316 316 316 316 315 315 314 314 314 313 313 312 312 312 312 312 312 312 312 311 309 307 305 303 302 300 298 298 297 297 296 296 296 295 295 296 296 297 296 295 296 297 297 296 295 294 292 293 294 294 293 293 293 293 292 292 291 289 289 289 288 288 288 289 290 290 292 295 298
302 303 303 304 304 305 306 307 308 309 309 310 311 313 314 314 315 315 315 315 314 313 312 312 311 311 310 310 310 310 310 310 310 310 310 310 309 306 304 303 302 299 298 297 297 296 296 296 295 295 295 295 296 297 296 295 297 298 297 297 296 296 294 293 293 293 293 293 293 293 292 291 290 289 289 289 288 288 288 288 289 289 291 295 298
301 301 302 303 303 304 304 305 307 307 308 308 309 310 312 313 313 312 312 312 311 310 310 309 309 308 308 308 309 309 308 308 308 308 308 308 308 306 304 302 301 299 297 296 296 296 295 295 295 295 295 295 296 296 296 295 297 298 298 298 298 297 298 296 294 293 292 293 292 292 292 290 289 288 290 290 290 289 288 288 288 289 291 293 295
300 300 301 301 302 303 304 304 305 306 306 307 307 308 310 311 311 310 309 309 309 308 308 308 307 307 307 307 307 307 307 307 307 307 307 307 307 305 304 302 301 299 297 296 296 296 295 295 295 295 295 295 296 296 295 295 296 299 298 300 299 298 300 298 295 293 292 292 292 292 291 290 289 289 290 290 289 289 288 287 288 288 290 292 293
300 300 300 300 301 301 302 303 304 304 304 305 306 306 308 308 309 309 309 309 309 308 308 308 307 307 306 306 305 305 305 306 306 306 306 306 306 305 303 302 300 299 297 296 296 296 296 295 295 295 295 296 296 295 295 294 296 298 299 301 301 301 301 298 296 295 292 292 292 292 291 290 290 290 291 290 288 289 288 287 288 288 289 290 291
299 299 299 299 300 300 300 301 302 302 303 303 304 305 306 306 307 308 308 308 308 308 308 307 307 306 305 305 304 303 303 304 304 304 304 304 304 304 303 302 300 299 297 296 296 296 296 295 295 295 295 296 296 296 295 294 295 298 299 300 301 302 301 298 298 298 294 292 292 292 291 290 290 290 291 290 288 288 288 287 287 288 289 289 289
298 299 299 299 299 298 298 299 300 300 301 302 303 304 304 305 306 306 306 306 307 307 307 306 305 304 304 303 303 302 302 302 302 302 303 303 303 303 302 301 300 299 297 296 296 296 296 295 295 295 295 295 296 296 295 294 294 296 298 299 299 300 300 300 300 300 298 295 294 293 292 291 290 290 290 290 288 288 288 288 287 288 288 288 288
298 298 298 298 299 298 298 298 298 299 299 300 301 302 303 303 304 304 305 305 305 305 305 305 304 303 303 302 302 301 301 300 301 301 301 301 301 301 301 301 300 299 298 296 296 296 296 296 295 294 295 295 295 296 296 295 294 295 297 297 298 298 298 300 301 301 301 299 296 294 293 292 291 290 291 290 289 289 288 288 288 288 289 288 288
297 297 297 297 298 298 298 298 298 298 298 299 300 301 302 302 302 303 303 304 304 304 304 304 304 303 303 302 302 301 300 300 300 300 300 300 300 300 300 300 299 299 298 296 296 296 296 296 295 294 294 295 295 296 296 296 295 294 295 296 296 297 297 298 299 301 302 302 299 296 294 293 292 291 291 290 289 289 289 289 288 288 289 289 288
297 297 297 297 297 297 297 298 297 297 297 297 298 299 300 300 300 301 301 302 302 303 303 303 303 303 303 302 302 301 300 300 299 299 299 299 299 299 299 299 299 299 298 297 296 296 295 295 295 294 294 294 295 296 296 296 295 295 295 296 296 296 297 297 297 299 300 301 301 298 295 294 293 292 291 290 289 289 289 289 288 288 290 289 288
Wind_Speed
11 11 17 24 26 24 23 20 19 19 18 16 16 15 14 13 12 12 11 11 10 10 9 9 8 9 9 8 8 7 8 9 8 8 8 8 8 8 9 8 7 6 6 5 5 5 5 5 5 5 6 7 6 6 5 6 8 8 7 7 7 7 8 9 9 9 8 9 10 10 10 9 8 10 10 10 9 9 10 11 10 7 6 7 7
14 14 16 25 26 25 24 20 20 18 18 17 17 16 14 14 13 13 12 12 10 10 10 10 10 9 9 8 7 6 7 7 7 7 7 7 7 7 7 6 5 5 5 5 5 4 5 4 4 5 5 5 6 5 5 6 7 7 7 7 7 6 6 7 7 7 7 7 8 8 10 10 8 9 9 8 8 8 8 10 9 7 6 6 5
15 17 14 24 27 26 25 20 20 19 18 17 17 16 16 15 14 14 13 13 11 10 11 11 11 9 8 7 7 6 6 6 6 6 6 6 6 6 6 6 6 5 4 5 4 4 5 4 5 4 4 5 5 3 3 4 5 5 5 6 6 6 6 5 5 5 6 6 8 8 7 9 8 7 7 7 6 6 7 7 7 7 7 5 4
15 17 13 23 26 26 25 21 21 19 18 17 17 17 16 16 15 15 14 13 12 11 11 11 10 9 8 7 6 6 6 6 6 6 5 5 5 6 6 6 6 5 4 5 4 4 4 4 4 2 3 4 2 1 2 3 3 2 2 3 4 5 5 4 4 3 4 5 8 8 4 5 6 5 5 6 6 6 7 7 7 7 7 6 5
14 16 13 22 27 26 25 22 21 20 19 18 18 17 16 16 15 14 14 13 13 12 11 11 10 9 8 8 7 6 6 6 5 5 5 5 5 5 5 5 6 5 4 4 4 5 4 4 4 2 2 2 0 0 1 2 2 1 1 1 1 2 3 3 2 2 2 4 7 6 3 3 4 4 4 5 5 5 6 6 7 7 7 6 6
14 16 14 21 26 26 25 23 21 21 20 19 18 18 16 16 15 15 15 14 13 12 12 11 10 10 9 8 8 7 7 6 6 5 5 5 5 5 5 5 5 5 4 4 5 5 4 3 3 2 1 1 1 1 1 2 2 2 3 3 4 4 4 3 2 1 2 4 5 3 2 3 3 3 4 4 4 4 4 4 5 5 6 6 6
14 15 14 19 24 25 26 24 22 21 20 20 19 18 17 16 16 16 16 15 13 12 11 11 11 10 9 9 8 8 8 7 7 6 6 5 5 4 5 5 5 5 5 5 5 4 4 4 3 2 1 2 3 4 4 5 5 5 5 6 7 7 7 6 5 4 1 3 2 1 2 2 2 2 3 3 2 2 2 3 4 4 4 5 6
14 16 14 18 21 22 25 26 23 22 21 20 19 18 17 16 16 16 16 15 14 12 11 12 11 11 10 10 10 9 9 8 8 7 6 6 5 5 5 6 5 6 6 5 4 4 3 3 2 2 0 5 5 6 7 8 9 8 7 7 8 8 8 7 6 5 2 1 2 1 2 2 1 1 1 2 2 1 1 2 5 4 3 5 6
14 16 15 17 20 21 23 26 25 22 22 21 20 19 17 16 16 15 15 15 14 12 11 12 12 11 11 11 11 10 10 9 9 8 7 6 5 5 4 5 5 6 6 5 4 3 1 1 0 1 2 7 7 8 9 10 10 9 8 7 6 6 6 5 4 2 0 1 1 1 3 3 1 1 2 1 1 1 1 1 3 2 1 3 5
14 16 16 16 19 21 22 25 27 24 23 22 21 20 18 17 16 15 14 14 14 13 12 12 11 11 11 12 12 11 10 10 9 9 9 7 6 6 5 4 5 5 5 4 2 2 0 0 0 0 3 8 9 10 10 10 9 7 6 5 5 4 4 3 1 1 2 1 1 1 4 5 2 2 3 1 2 1 1 2 2 1 0 1 2
13 16 16 15 17 21 22 24 27 25 24 23 23 21 19 18 17 16 15 15 14 14 14 12 12 12 12 12 12 11 11 10 10 9 10 10 7 8 7 5 6 5 5 4 3 2 1 1 1 1 3 9 9 9 9 7 5 4 4 5 5 5 5 3 3 2 3 2 2 2 2 3 2 3 2 1 2 3 1 2 3 3 2 0 1
13 15 16 15 17 21 22 24 28 27 25 24 23 22 21 20 19 17 16 16 15 15 14 14 13 13 12 13 13 12 11 11 11 11 11 13 10 10 9 6 8 7 6 6 5 4 3 3 2 2 4 9 9 7 5 3 2 4 4 5 5 6 6 5 5 2 3 3 4 4 3 1 2 5 2 1 2 3 2 1 1 2 2 2 1
13 14 15 15 16 21 21 24 29 28 26 25 24 24 22 21 20 19 18 17 16 16 15 15 15 14 14 14 14 13 12 11 11 12 12 13 12 12 10 8 9 9 7 7 7 5 4 4 4 4 6 9 7 4 1 1 2 3 4 5 5 5 6 6 5 3 4 3 4 5 4 1 2 5 4 3 3 2 2 2 2 1 1 1 1
13 14 15 15 16 21 22 24 29 29 27 27 26 25 24 22 22 21 20 18 17 17 17 16 16 16 16 15 14 13 13 12 12 13 12 13 12 12 12 10 9 10 8 8 8 7 6 6 5 5 8 7 4 2 1 2 2 3 4 4 5 5 5 6 5 4 4 4 5 5 5 3 2 5 4 3 3 2 2 2 3 3 2 2 2
13 15 16 16 16 19 21 24 29 30 28 28 26 26 25 24 23 22 20 19 19 18 18 18 17 17 16 15 14 14 12 12 13 13 12 13 12 10 12 12 9 10 8 8 8 8 7 6 6 7 8 5 3 2 1 1 2 3 4 4 5 5 5 6 5 5 4 5 6 5 5 3 6 7 3 2 2 2 1 2 2 3 2 2 2
12 15 17 16 16 16 19 25 29 29 28 27 26 26 26 25 24 23 21 20 20 19 19 19 18 18 17 16 15 14 13 13 13 13 12 13 12 9 12 11 10 10 9 9 9 8 8 7 7 8 7 4 4 2 1 1 2 2 3 4 4 5 5 5 5 4 3 5 6 5 4 3 7 6 4 2 2 2 1 1 1 1 2 1 2
11 15 16 15 15 14 16 23 29 30 28 27 26 25 25 25 24 23 22 21 20 20 20 19 19 18 18 18 17 17 16 16 16 14 13 13 11 10 11 10 10 10 9 9 9 8 8 8 8 8 6 5 4 3 2 1 2 2 3 4 5 5 5 5 5 4 3 5 6 5 2 3 6 5 4 3 2 2 1 1 1 1 1 1 0
12 15 16 15 16 15 16 19 26 28 27 27 26 26 25 25 24 23 23 22 21 21 21 20 19 19 19 19 19 19 18 17 17 16 15 13 12 11 11 11 11 11 10 10 9 9 9 9 9 8 7 6 4 3 2 2 2 2 3 4 5 5 5 6 5 4 4 5 5 2 1 4 6 4 3 3 2 2 1 1 1 2 2 3 2
16 15 16 16 16 17 17 19 22 24 24 24 24 25 26 26 25 25 24 23 22 22 22 21 21 21 20 21 20 20 19 18 18 18 17 15 14 14 12 12 12 12 11 10 10 9 10 9 10 9 7 6 5 3 1 1 2 3 4 4 5 5 5 5 5 5 5 5 3 2 3 5 6 3 2 1 1 1 1 1 1 2 2 3 3
18 17 17 18 18 19 18 20 21 23 23 23 23 23 26 27 27 26 25 25 24 24 23 23 23 22 22 22 22 21 20 20 20 20 20 18 17 16 14 13 12 13 12 11 11 10 10 10 10 9 8 6 4 2 0 1 2 3 4 4 4 4 5 4 5 5 4 5 3 2 3 6 5 3 1 1 1 2 3 2 1 2 2 3 3
16 19 19 19 19 21 21 21 21 23 24 24 24 23 25 27 28 29 28 27 26 26 25 24 24 24 24 24 22 22 21 21 21 21 21 20 19 17 16 14 13 13 13 12 12 11 10 11 11 9 8 5 3 2 1 2 2 3 4 4 4 4 4 4 4 4 3 3 2 2 4 6 4 3 1 1 1 2 2 2 2 2 2 2 2
15 18 20 21 20 22 23 22 22 23 24 24 24 23 24 26 29 30 29 30 29 28 28 26 25 24 24 25 23 21 19 19 19 21 21 21 20 19 17 15 13 14 15 14 12 11 11 12 12 10 7 5 4 3 2 2 3 3 3 4 4 4 4 4 3 2 2 2 1 1 3 5 5 2 1 2 1 1 2 2 2 2 2 1 1
15 17 21 24 23 22 24 25 24 24 24 24 23 23 24 24 27 27 27 29 29 30 30 27 25 23 24 26 24 20 18 16 16 20 21 20 19 18 18 16 14 15 16 14 12 11 11 14 13 10 8 7 6 4 4 3 3 3 3 3 3 4 4 4 3 4 3 1 2 1 2 3 4 2 1 2 2 2 2 3 3 3 3 2 2
17 17 19 22 24 24 24 26 25 24 24 25 24 23 24 23 24 25 26 27 26 27 28 27 25 23 25 26 24 21 19 17 17 20 21 19 18 17 18 17 16 17 18 15 12 12 13 15 14 11 10 9 8 6 5 5 4 4 4 4 4 4 4 4 4 5 5 4 4 3 2 2 3 2 1 1 1 1 2 3 3 3 3 3 4
14 16 16 19 25 27 26 26 26 25 25 25 25 24 24 24 23 24 26 25 24 26 25 26 26 26 26 24 23 23 21 18 19 22 21 18 17 17 18 18 17 17 19 16 13 14 16 17 15 13 13 11 9 8 7 6 5 5 5 5 4 4 4 5 5 5 6 7 6 5 4 2 2 2 1 0 1 0 1 2 2 3 3 4 4
13 14 15 18 23 28 28 27 27 28 28 27 25 24 25 24 23 24 25 25 25 25 25 26 27 27 27 25 23 24 23 20 19 22 21 17 16 17 18 19 17 17 19 18 15 18 20 19 17 15 15 12 11 10 9 8 7 6 6 5 4 4 5 5 5 5 6 7 7 6 5 3 3 2 1 1 0 0 1 2 2 3 3 4 4
14 14 16 16 19 25 28 28 28 29 29 28 25 23 25 25 24 25 26 25 24 24 24 26 26 26 28 27 25 25 24 21 18 20 21 17 16 17 17 19 18 17 20 18 16 20 21 20 19 17 16 14 13 11 10 9 8 7 6 5 5 5 5 5 5 5 6 7 7 6 5 4 3 3 2 0 1 1 1 1 2 2 2 3 4
14 15 16 17 19 24 27 29 30 30 31 31 28 25 25 25 25 25 26 25 24 24 25 25 25 26 28 28 27 27 24 21 18 20 20 18 17 17 17 18 17 18 20 18 18 23 23 22 20 19 18 16 13 12 10 10 8 8 7 6 6 5 5 5 5 5 5 6 6 5 4 3 3 4 4 2 1 1 1 1 1 2 2 2 3
16 18 17 18 20 23 27 30 31 32 32 31 31 28 26 26 26 25 25 26 26 24 25 25 24 26 28 29 30 28 23 21 20 20 21 19 17 18 17 18 17 17 19 18 20 26 24 22 22 20 19 15 13 12 11 10 9 9 8 7 7 6 6 6 5 5 4 5 6 4 3 3 4 5 6 4 2 2 2 2 1 2 2 3 3
19 20 19 20 21 22 26 30 31 33 32 31 32 31 28 27 27 27 26 28 28 25 24 25 25 25 28 30 31 29 24 22 22 21 21 21 19 19 18 18 18 17 20 21 23 26 23 23 22 21 18 16 14 13 12 11 11 10 9 8 8 7 6 6 5 5 4 4 5 4 2 3 4 6 7 6 4 3 3 2 2 2 2 3 3
21 22 21 21 22 22 25 28 30 31 31 32 34 33 30 29 28 28 27 27 27 25 24 25 25 26 28 31 33 33 29 23 23 23 22 22 20 20 20 19 19 21 24 26 26 25 23 22 22 21 19 16 15 14 13 13 12 11 10 9 8 7 6 5 5 4 3 3 4 3 2 4 5 6 8 7 5 4 4 3 3 3 3 3 3
22 23 22 21 20 22 24 26 28 30 32 33 35 35 32 31 29 28 28 27 26 26 24 24 25 26 28 32 35 37 34 26 25 27 25 24 23 23 24 22 23 26 27 28 27 25 23 22 22 20 18 17 17 16 15 13 13 12 11 10 8 7 6 5 5 3 3 3 2 1 3 5 6 7 9 9 7 7 6 4 4 3 4 4 3
18 18 18 20 19 20 22 24 26 29 33 33 33 35 32 29 29 28 27 26 26 26 25 24 25 26 29 34 37 38 37 32 29 30 29 26 26 27 28 27 27 28 29 29 29 27 24 23 23 21 19 19 18 18 16 14 14 13 11 10 8 7 6 5 5 4 3 3 3 2 4 6 7 8 9 9 9 9 7 5 5 4 5 5 5
15 12 13 16 17 19 20 21 23 25 30 30 27 29 29 27 27 26 25 25 25 26 26 25 24 25 30 36 38 38 39 36 32 31 31 29 29 30 31 31 30 29 30 31 30 28 27 26 24 22 21 19 18 19 17 15 14 13 12 10 8 8 7 6 5 5 4 4 5 5 5 6 6 8 9 8 9 8 8 7 7 6 6 6 5
14 12 12 14 14 16 19 20 23 24 26 27 24 22 24 24 23 22 23 24 24 24 25 25 24 25 31 36 38 39 40 38 34 33 34 32 31 31 32 32 31 31 31 31 30 29 28 27 25 23 21 19 18 18 16 14 13 12 12 10 9 8 6 7 6 6 6 6 6 6 6 5 5 7 8 8 9 9 9 9 8 7 6 6 5
13 13 12 12 12 14 18 20 22 24 25 26 25 22 20 20 20 20 21 21 23 23 22 23 23 24 30 35 37 40 41 40 37 36 35 33 31 31 32 32 32 32 32 32 31 30 28 27 26 24 23 20 17 17 15 12 13 12 11 9 8 8 6 6 7 7 7 6 7 8 7 7 8 9 7 7 10 10 9 10 9 8 9 10 7
13 13 12 11 11 12 15 18 18 20 21 22 24 22 19 18 18 19 19 20 22 22 20 21 21 23 29 32 34 38 41 41 40 39 37 35 33 32 32 33 34 34 33 33 32 31 29 27 26 25 23 21 19 19 15 11 12 12 11 10 9 7 6 6 7 8 8 7 9 10 9 10 11 11 9 7 8 10 10 10 10 9 11 12 9
14 14 12 10 10 9 10 14 15 15 16 17 18 19 18 17 16 17 17 19 21 21 19 19 20 21 25 28 31 35 39 41 41 40 38 35 33 32 32 33 35 35 34 34 33 31 29 29 29 26 24 22 21 21 17 12 13 12 10 10 8 7 6 8 8 7 7 8 9 10 10 11 11 11 11 9 8 9 10 9 10 10 10 11 10
16 16 14 11 9 8 6 9 11 12 13 14 14 14 15 15 14 14 15 16 17 18 18 17 17 18 20 23 27 31 35 39 40 40 38 35 33 32 31 33 35 35 34 34 33 31 30 29 30 29 25 22 21 21 18 15 15 12 9 8 8 7 7 8 8 7 7 9 10 11 11 11 12 13 12 11 10 10 10 9 9 10 10 10 10
19 19 18 15 11 9 6 5 7 8 9 11 11 12 12 13 13 13 13 14 15 16 16 16 16 15 17 20 25 28 31 35 37 38 38 35 33 32 32 33 35 35 34 35 34 33 33 32 31 31 28 22 19 19 19 18 16 12 8 7 7 7 8 8 8 7 7 9 10 9 10 10 12 12 11 11 11 10 10 9 9 9 10 10 10
21 21 20 18 15 12 8 6 5 5 7 8 9 10 11 11 12 13 13 12 13 14 15 16 16 15 16 20 23 25 27 30 33 35 36 35 33 31 31 32 33 34 35 35 34 33 34 33 31 31 30 27 22 19 21 21 16 11 7 6 6 5 7 8 7 7 7 8 8 7 8 9 10 11 11 11 11 10 10 9 8 8 9 9 10
21 21 21 19 17 15 12 9 6 3 5 6 7 8 9 10 10 10 10 10 10 11 12 12 14 13 15 19 21 23 25 28 30 33 34 34 32 30 29 31 34 33 33 34 32 31 32 32 32 32 31 30 26 24 25 22 15 11 9 6 5 4 5 6 5 7 8 8 8 7 7 8 10 10 10 10 10 10 10 10 10 10 10 11 12
20 21 22 20 19 18 16 13 9 5 5 5 6 6 7 7 7 6 6 7 7 8 9 9 10 10 13 18 20 21 23 25 28 31 33 34 34 31 28 30 33 33 33 33 32 32 34 33 34 34 31 28 24 25 29 25 17 14 11 5 4 4 3 6 7 9 9 9 10 10 9 10 11 10 9 9 9 10 11 11 11 12 12 13 14
21 23 24 23 21 21 19 16 12 9 7 6 5 5 4 4 5 5 4 5 5 5 7 9 11 13 14 19 22 22 23 24 26 29 32 34 35 33 30 30 33 34 34 34 33 35 36 36 36 35 32 27 22 24 30 28 22 17 10 3 4 5 3 7 10 10 11 10 10 11 12 12 12 11 9 8 9 10 12 12 12 13 14 14 14
25 26 26 25 23 23 22 18 15 13 11 9 7 6 4 2 3 6 5 6 7 6 6 8 11 14 15 18 21 24 25 25 26 28 31 34 34 34 32 31 33 35 35 35 35 36 37 38 37 34 34 32 26 25 28 30 27 23 15 6 5 4 3 8 11 8 11 12 11 11 12 13 12 11 10 10 12 11 12 13 14 15 16 16 14
27 26 25 25 25 25 24 21 18 16 15 12 9 7 6 5 4 4 4 5 7 6 7 7 7 9 11 13 16 19 23 25 27 28 30 33 35 35 34 33 34 35 36 36 34 35 37 38 38 35 35 34 29 26 28 31 29 26 21 14 8 5 4 11 9 4 8 11 12 13 13 14 14 12 11 12 13 12 12 14 15 17 17 17 16
26 25 25 25 26 26 25 23 20 19 18 15 11 8 7 7 6 5 5 6 7 6 5 5 5 5 6 8 10 13 18 21 23 25 27 30 34 36 36 35 36 35 36 35 32 33 37 38 39 37 36 34 31 28 29 32 30 27 27 22 14 9 11 14 8 4 5 7 12 13 13 15 15 13 13 13 13 13 13 15 16 19 19 18 16
25 25 26 26 26 27 26 24 21 20 20 17 14 11 9 7 6 6 6 7 8 8 7 5 4 4 4 6 7 9 14 17 19 21 24 27 30 33 36 36 37 36 35 36 33 32 35 37 38 38 36 35 34 31 30 33 33 31 30 27 20 15 16 15 13 11 6 3 8 11 13 16 16 14 14 15 15 15 15 16 18 20 21 20 17
24 24 24 24 25 26 27 25 22 21 21 20 17 14 11 8 7 8 8 8 8 9 8 7 5 4 4 6 7 7 10 14 16 18 20 24 27 30 33 34 36 36 34 36 36 33 33 36 39 39 37 35 35 33 30 33 36 35 33 30 23 17 16 15 15 15 8 5 6 7 10 13 13 15 17 16 16 16 16 17 19 20 21 21 20
21 22 22 23 24 25 26 27 24 22 21 21 18 15 12 10 11 12 12 11 10 10 9 9 8 6 6 6 6 7 8 10 13 16 18 21 24 27 31 33 34 35 33 34 36 34 34 36 39 41 40 36 34 34 32 32 36 36 35 34 27 19 14 11 13 15 10 6 6 7 12 13 10 15 20 19 19 19 18 18 20 21 20 22 22
20 21 21 22 23 24 25 26 25 23 22 21 19 16 14 14 15 14 13 12 12 12 11 11 11 10 9 8 7 7 8 8 10 13 16 19 21 23 27 29 31 31 31 33 36 36 36 37 38 40 41 39 36 35 34 32 33 34 34 33 32 29 22 15 16 18 12 6 5 6 11 14 11 13 19 21 20 20 19 20 22 23 21 22 23
Wind_Direction
191 173 182 189 183 184 182 174 179 179 179 180 180 180 180 181 181 183 184 182 180 182 182 183 176 168 158 155 154 151 159 162 159 148 146 141 137 136 130 128 122 125 124 124 122 118 118 112 106 103 102 97 99 95 86 75 74 79 80 78 75 74 70 72 75 79 89 94 101 112 115 110 109 107 105 104 102 101 99 94 86 79 81 86 90
186 172 182 191 185 186 183 177 180 179 180 181 182 181 181 183 185 186 189 188 186 188 184 180 172 164 159 157 157 153 155 160 164 158 154 147 147 145 133 129 130 133 129 130 128 131 131 128 122 114 111 103 101 94 91 78 73 80 86 87 81 81 75 72 76 79 81 83 91 106 117 115 114 112 111 109 104 103 102 104 101 93 84 85 90
179 171 181 191 188 188 184 180 180 180 183 182 182 182 183 185 189 188 189 189 188 188 179 175 171 168 168 167 168 164 160 159 165 165 164 158 156 155 147 146 147 143 140 144 136 139 136 132 127 120 119 106 97 82 82 73 65 75 87 91 86 84 81 76 71 73 78 80 85 88 107 117 114 113 113 110 107 105 101 106 101 83 75 72 76
173 171 177 191 190 190 186 183 181 181 183 184 184 184 188 189 191 189 187 186 184 184 178 176 175 177 177 177 178 176 175 170 171 172 173 170 166 166 164 160 150 149 154 153 145 141 135 129 123 126 122 101 85 49 65 64 48 55 72 83 77 74 76 79 69 68 71 74 88 87 102 117 114 115 114 111 107 108 100 92 84 75 70 65 65
170 169 174 190 191 191 188 185 185 183 184 185 186 187 190 191 188 186 185 182 181 182 181 182 183 184 184 184 186 183 183 181 179 176 178 180 179 177 172 164 152 155 160 151 147 136 129 125 122 134 131 105 78 8 59 50 29 20 334 316 359 16 39 54 61 58 62 84 95 93 114 115 112 130 124 111 106 106 100 87 80 73 66 63 58
169 171 171 187 189 192 191 187 188 186 188 189 189 190 190 192 188 187 187 185 184 184 186 187 187 188 186 187 191 190 187 184 181 176 178 179 179 175 165 158 154 154 154 151 141 129 126 118 125 144 148 256 281 320 328 356 351 327 297 283 293 304 319 327 339 359 47 80 84 86 120 111 100 137 141 114 102 94 87 85 81 70 67 69 60
169 174 170 181 185 192 193 189 191 189 192 192 193 193 191 192 191 192 193 194 192 189 190 189 190 190 190 192 196 194 189 182 175 172 168 162 160 160 156 153 155 155 147 148 138 131 130 115 121 136 137 286 293 310 320 325 323 313 298 286 284 287 290 295 299 290 320 61 37 45 139 141 98 98 165 149 124 87 60 62 56 59 79 86 69
170 176 172 179 181 193 196 191 192 193 195 195 197 196 194 194 194 196 196 199 198 195 193 192 192 192 195 197 199 194 188 180 168 165 160 156 155 148 157 158 152 154 146 144 141 131 131 127 121 109 307 290 294 303 313 317 318 317 308 298 290 288 286 285 287 281 278 26 348 282 136 150 159 85 164 168 159 171 21 32 16 20 88 109 96
174 176 176 177 183 198 200 193 192 195 198 199 200 199 199 199 199 201 199 200 201 200 198 199 196 194 200 200 201 197 186 176 168 167 165 163 157 144 153 167 156 157 151 142 144 126 134 232 260 96 285 287 296 304 309 315 317 320 319 316 309 304 300 290 278 265 300 332 351 238 175 141 192 134 115 162 150 228 263 53 21 23 91 125 121
180 177 179 177 186 201 202 198 194 195 200 201 202 201 202 204 205 206 205 205 203 205 202 204 202 200 206 204 204 200 185 176 173 173 178 173 156 152 159 172 166 167 162 146 153 139 120 217 288 248 281 286 295 303 306 314 319 329 337 347 350 352 346 330 314 151 121 73 54 264 193 144 143 115 99 98 59 3 254 210 192 176 276 111 120
183 179 181 180 193 201 202 203 197 195 200 202 204 203 205 206 210 210 211 210 208 210 206 206 206 208 208 206 207 198 185 178 180 185 193 194 179 173 172 182 189 189 188 183 198 196 215 200 227 225 272 287 294 299 303 316 331 1 16 32 34 38 35 51 68 126 135 94 114 112 143 132 115 112 112 98 32 356 338 242 223 234 267 26 40
183 182 183 183 199 205 202 204 199 197 199 201 206 206 207 207 212 213 214 214 212 214 211 208 207 209 205 204 205 194 188 184 193 203 203 205 209 201 185 192 207 207 208 203 202 212 224 211 223 208 259 287 293 295 303 330 14 44 48 52 49 56 51 69 82 112 125 96 139 121 102 102 72 97 105 115 56 8 18 21 228 226 227 230 253
184 184 186 187 200 208 205 206 201 199 199 201 205 208 208 208 213 214 215 216 213 215 214 212 208 207 204 203 202 193 193 191 203 215 212 213 222 225 208 202 213 215 217 203 194 204 206 200 207 211 257 284 286 283 295 45 62 55 53 58 55 64 63 70 79 97 110 103 129 104 76 26 45 94 87 83 83 45 53 60 75 97 187 191 139
188 186 189 190 200 211 208 208 204 201 202 202 206 210 210 209 212 215 216 215 213 214 214 213 210 207 204 204 200 194 197 198 213 222 226 230 233 240 221 205 212 215 214 200 196 199 194 199 198 218 257 272 260 236 145 74 56 53 49 54 56 63 69 76 78 87 101 100 109 94 64 53 113 116 101 90 82 69 69 68 83 83 80 93 112
194 194 196 193 201 214 212 210 205 202 204 206 209 211 211 211 213 215 215 214 213 213 213 212 210 207 203 202 199 200 209 210 222 230 236 243 242 239 215 202 210 214 209 196 194 191 191 198 192 222 251 244 208 183 132 79 47 44 43 46 54 59 67 80 84 77 88 96 91 82 60 80 141 122 112 136 92 93 99 73 84 92 96 104 129
201 205 204 197 198 209 212 210 205 204 206 209 212 213 213 212 213 214 214 213 212 212 214 213 209 205 200 198 199 206 214 212 220 233 237 245 245 227 204 199 207 210 202 194 187 186 192 190 194 227 238 210 193 177 148 98 63 55 53 54 56 61 66 78 95 84 92 121 100 74 53 121 150 122 110 142 110 115 125 98 110 113 117 84 106
207 212 207 201 198 199 204 206 205 205 208 211 214 215 214 214 213 213 213 213 212 212 212 211 208 203 201 202 205 208 212 214 221 232 234 242 238 214 204 202 207 208 200 194 188 191 192 185 204 230 221 203 197 184 172 130 100 87 71 67 64 65 69 73 96 97 108 133 111 81 41 168 152 120 105 123 126 131 126 150 178 194 209 238 355
207 214 208 205 201 199 198 202 206 207 209 213 216 217 217 216 214 212 213 213 211 209 207 206 205 204 207 210 212 214 218 225 228 229 231 236 223 206 205 206 207 207 203 198 193 195 189 188 216 224 208 203 198 193 182 134 97 78 66 62 63 63 69 75 86 93 107 116 108 108 229 180 154 122 99 118 125 127 131 163 199 218 228 234 249
211 213 209 209 204 202 200 200 206 208 210 212 217 219 219 216 214 213 212 212 207 205 207 207 207 208 212 216 218 219 223 228 229 230 231 231 222 212 205 204 205 203 205 202 196 195 186 199 223 216 204 204 201 199 175 99 41 38 38 40 49 56 64 75 84 92 113 117 111 216 221 181 168 140 106 140 138 153 181 172 208 222 229 235 243
217 214 210 211 206 203 201 201 204 207 209 211 216 219 220 217 214 215 213 211 207 206 210 212 213 213 216 220 222 224 225 228 230 232 233 231 227 221 207 200 202 201 202 199 195 191 188 211 222 211 207 207 207 211 208 356 1 3 8 20 24 37 52 60 78 91 116 136 142 221 206 185 175 140 127 162 165 206 210 194 198 220 226 232 240
217 218 214 211 207 206 203 203 203 205 208 209 213 217 222 220 215 216 215 213 211 210 213 216 218 219 221 224 226 226 225 227 228 229 231 231 229 224 211 200 198 200 199 195 192 187 194 217 217 210 212 210 212 222 248 303 324 335 346 355 1 14 25 33 57 84 107 138 171 194 186 189 167 120 132 159 183 216 209 187 190 212 216 226 237
213 216 216 211 207 208 207 206 205 204 205 207 211 213 220 224 221 218 218 217 216 215 216 218 221 222 225 226 225 223 218 219 221 221 226 228 228 224 214 204 195 199 198 191 187 185 198 215 214 209 210 209 214 223 241 270 294 308 323 331 343 355 354 10 26 31 78 136 225 185 182 189 161 121 118 149 165 173 169 167 169 180 182 189 167
211 212 216 214 208 208 209 208 208 205 204 205 209 212 215 221 222 218 219 221 219 220 220 220 221 220 225 226 221 217 211 208 212 215 219 222 226 223 216 207 194 199 201 192 187 184 196 211 211 208 207 208 212 223 240 251 270 282 297 310 320 331 339 354 1 354 358 320 313 313 205 193 165 134 109 143 136 139 145 148 148 147 148 133 112
214 215 217 214 210 209 209 210 209 205 204 206 208 212 213 215 218 216 217 220 220 220 221 220 221 219 222 223 217 215 210 205 211 214 215 216 219 220 214 205 196 203 206 195 187 187 197 210 209 206 209 209 209 217 231 243 254 264 278 288 299 313 324 336 339 340 337 327 329 323 288 231 177 143 95 155 138 146 148 143 146 139 134 120 109
222 216 210 210 217 217 212 210 209 207 206 206 209 211 212 213 215 214 213 214 215 216 217 217 220 217 217 219 215 214 208 203 212 214 212 209 209 213 208 200 195 202 208 197 192 200 208 213 209 206 211 210 209 214 222 232 240 247 259 269 283 299 308 320 326 330 328 324 328 324 313 286 210 150 48 265 148 138 149 146 147 139 131 122 115
230 218 209 211 221 224 218 211 209 209 208 207 210 212 213 214 213 211 211 212 212 211 212 213 215 214 214 215 212 212 207 202 209 211 208 197 197 203 198 194 191 198 205 196 197 210 213 213 209 207 210 209 210 214 219 223 230 236 245 256 270 283 295 306 313 322 319 317 323 320 314 300 247 174 64 336 214 83 132 137 134 139 131 118 112
233 222 217 213 215 222 222 216 211 210 210 208 209 212 214 215 214 213 211 210 209 208 208 209 211 210 211 211 208 208 203 196 200 203 201 192 192 195 190 193 190 195 202 192 197 211 212 211 208 208 209 209 211 215 218 222 228 234 241 251 260 271 282 293 302 310 309 308 313 312 307 296 251 185 116 68 201 141 132 126 129 139 132 121 113
239 231 225 219 215 222 226 221 216 214 212 210 208 210 213 214 212 212 212 209 208 207 206 206 207 207 209 209 206 206 198 191 194 196 196 193 193 193 189 192 191 194 199 193 199 209 210 209 207 208 209 209 211 215 218 223 228 233 239 244 251 260 270 281 292 299 300 300 302 302 295 278 234 183 142 124 174 165 151 138 145 150 143 137 127
240 237 229 222 219 222 226 224 220 218 215 210 208 209 210 210 210 211 211 210 209 207 205 204 204 205 208 208 205 203 195 191 194 193 194 193 192 192 189 191 191 191 195 195 204 210 208 206 207 208 209 209 210 214 218 222 225 230 234 239 245 251 261 273 283 290 289 286 291 296 282 260 223 186 154 130 143 166 172 165 159 162 157 151 143
239 239 232 227 226 220 222 226 223 220 215 210 210 209 209 210 209 211 212 212 210 206 204 203 202 203 207 209 207 203 197 194 196 194 193 193 191 191 190 191 191 192 197 200 208 211 207 206 207 207 206 206 209 213 217 221 224 227 230 234 237 244 254 265 272 280 279 272 281 284 260 236 216 192 165 141 131 143 162 177 179 177 168 162 158
240 238 232 230 231 225 221 224 224 220 214 212 214 212 210 212 211 210 212 211 209 205 204 204 202 203 207 209 207 206 203 197 198 199 195 193 192 193 194 192 193 201 206 207 210 210 207 207 208 207 205 204 208 212 214 219 223 225 228 229 231 238 247 259 265 267 261 257 272 268 219 206 204 188 163 141 123 132 147 161 175 185 182 173 168
242 241 240 236 232 227 223 224 224 221 217 214 217 216 211 212 212 208 209 209 206 205 205 205 205 205 208 209 209 210 209 202 202 206 201 196 196 199 200 199 202 209 211 211 212 209 204 206 207 205 203 204 208 209 210 213 218 220 222 224 227 233 240 251 257 249 233 229 237 225 191 186 187 182 167 149 134 135 138 148 160 172 184 183 175
250 249 247 242 236 229 225 224 223 222 222 217 216 219 214 210 212 209 210 210 206 207 206 205 205 204 208 214 216 215 212 209 208 210 207 202 203 207 207 207 209 212 214 213 213 209 204 206 207 204 204 205 207 208 205 206 211 215 217 220 224 232 239 244 250 247 232 209 178 162 170 173 174 179 177 166 155 142 125 132 149 139 148 164 167
266 260 249 242 238 235 229 226 222 221 224 220 215 217 214 209 211 211 211 210 207 209 208 208 207 206 213 222 222 218 215 213 212 212 211 208 209 211 212 212 212 214 215 215 214 211 206 208 208 205 206 205 207 208 203 202 207 211 215 217 223 231 236 236 241 239 220 196 179 168 158 157 168 183 184 181 178 163 143 141 139 122 123 143 152
282 269 254 245 240 236 235 233 229 226 226 223 216 215 214 211 210 211 210 209 209 210 209 210 210 210 219 225 224 220 218 216 214 215 214 213 213 214 215 215 214 214 216 215 214 211 209 211 210 206 206 204 206 206 198 200 204 207 212 212 218 224 225 228 230 223 208 194 183 171 154 146 162 182 185 194 199 192 182 171 149 122 119 136 148
301 288 270 254 245 238 238 240 237 233 230 227 222 217 215 213 212 213 212 210 211 211 211 212 212 213 221 227 226 222 220 218 217 219 218 216 216 217 218 217 216 216 216 216 214 211 209 210 210 206 204 199 201 200 191 193 200 202 203 199 208 210 202 214 215 205 194 182 180 175 167 169 179 179 176 199 207 202 202 193 173 154 145 141 137
324 314 295 273 261 248 239 240 239 234 229 227 225 219 215 213 213 215 213 212 215 214 213 214 213 217 223 226 227 224 222 220 220 221 221 219 219 219 220 219 219 218 217 216 213 210 208 208 207 204 202 198 197 196 184 182 193 197 196 195 199 189 176 188 194 197 188 176 185 186 189 195 193 184 180 195 204 201 204 203 196 187 170 150 130
346 338 326 303 285 274 247 240 240 232 223 222 221 218 216 214 213 214 213 213 217 217 214 214 214 218 223 225 227 226 224 222 221 222 222 222 222 221 221 221 221 218 216 216 212 208 206 207 205 202 201 198 197 194 183 178 187 189 189 192 189 170 170 183 182 186 181 177 186 188 194 198 192 190 193 194 194 198 201 204 207 205 195 179 159
3 0 355 342 317 302 273 248 245 232 221 218 216 213 214 215 214 214 213 213 216 216 213 214 215 216 220 224 228 228 226 222 221 223 222 222 223 222 222 223 222 218 215 214 210 205 204 205 204 201 198 197 198 192 181 179 183 180 174 178 179 172 176 182 176 169 175 189 195 194 195 197 197 200 201 199 200 202 199 200 208 210 204 198 189
15 12 9 3 350 330 307 276 256 236 221 214 210 207 209 213 214 214 215 215 215 214 213 214 216 216 218 224 228 229 227 223 222 222 222 222 223 223 223 224 223 218 214 213 209 205 204 203 203 201 194 190 189 184 182 181 175 166 161 169 178 184 184 179 175 173 183 198 197 194 197 199 204 205 203 203 207 207 204 204 207 208 204 200 195
19 17 15 10 5 355 339 318 291 248 226 217 211 208 209 211 212 215 218 218 215 215 218 219 219 218 220 225 228 229 227 224 223 222 223 222 222 224 224 225 223 218 216 215 211 207 207 204 202 201 196 189 181 178 183 178 165 155 151 154 162 183 191 181 181 184 181 186 182 182 192 199 205 206 206 209 210 207 205 203 198 194 189 182 182
17 18 19 16 13 10 3 349 335 290 252 237 228 221 219 218 219 221 221 220 218 216 220 223 222 221 224 226 228 228 228 226 225 223 223 222 221 223 225 226 224 220 218 216 213 210 207 204 201 199 198 194 187 182 183 176 168 167 157 147 150 167 192 187 188 190 182 179 176 175 181 193 202 204 208 212 210 207 202 198 192 184 172 164 173
16 19 20 20 20 17 11 3 356 337 305 273 250 245 239 231 230 232 222 215 216 213 213 215 213 212 222 231 232 231 229 228 227 225 223 223 223 222 225 228 225 221 219 216 214 212 209 206 204 200 196 193 192 189 187 184 175 164 153 159 172 155 188 200 200 198 191 186 184 185 190 200 204 201 202 206 207 208 204 200 196 186 175 170 175
19 21 21 20 20 18 15 12 10 4 345 322 290 278 262 226 215 228 222 210 217 212 211 217 220 221 226 234 237 235 233 231 230 228 226 225 224 224 225 228 226 223 220 217 215 214 212 209 207 204 196 189 188 192 193 191 182 169 162 172 171 172 215 192 185 192 189 187 189 192 199 205 205 200 195 195 200 207 208 202 197 189 180 173 173
22 22 22 21 20 18 18 18 22 21 9 353 332 309 286 249 211 225 231 229 237 235 227 229 230 231 233 236 238 238 236 235 233 232 230 229 227 225 225 227 227 224 222 220 218 217 216 212 209 207 202 196 190 191 195 196 192 185 182 171 155 198 232 158 159 180 185 188 190 191 200 202 202 199 195 199 201 203 208 201 194 191 185 177 173
22 21 22 23 23 22 20 22 26 25 18 9 356 336 312 298 279 259 262 259 256 251 246 244 235 233 234 233 236 237 237 237 235 234 233 231 229 227 226 227 228 226 223 221 221 220 218 215 212 208 207 206 198 190 193 198 199 195 194 191 179 188 160 146 148 164 182 196 197 192 200 201 198 195 195 206 205 201 205 200 194 192 186 180 176
20 20 23 24 26 25 24 25 26 24 18 15 10 0 341 320 314 314 311 307 298 295 290 275 257 248 237 226 227 233 239 239 235 233 233 233 232 228 227 228 228 228 225 221 220 222 221 218 215 212 211 210 205 197 195 197 200 203 205 205 201 184 154 156 165 148 160 201 200 196 203 204 202 197 199 209 205 201 205 201 197 193 188 183 179
21 21 23 24 26 27 27 28 28 26 20 17 17 12 0 343 343 349 338 328 319 315 320 315 288 266 247 232 227 231 243 244 236 232 234 234 233 230 229 229 228 227 226 223 221 223 224 221 218 216 214 213 210 206 202 198 199 204 208 211 213 199 176 177 185 172 155 173 188 197 205 206 209 206 206 212 207 204 206 203 199 194 191 188 183
24 25 26 24 27 28 28 30 29 27 25 22 22 18 7 355 4 14 1 346 335 325 322 320 309 286 259 245 238 236 243 246 241 236 235 236 235 234 231 230 229 228 226 225 223 224 225 223 221 218 216 215 214 213 210 204 203 204 205 210 215 211 200 202 202 194 186 162 168 189 188 192 211 214 211 211 206 205 205 204 201 195 193 192 188
25 26 29 28 29 29 29 31 30 28 27 26 26 22 16 13 21 23 10 354 343 334 327 321 316 304 286 268 253 247 240 239 240 238 238 239 237 236 235 233 232 230 228 227 225 224 224 224 224 222 219 218 217 218 216 213 211 209 207 208 208 207 207 210 212 209 203 181 172 177 175 175 194 207 208 207 204 205 203 202 200 195 194 196 194
26 27 29 29 30 30 31 32 31 30 29 28 27 26 25 27 29 25 15 3 352 342 334 326 323 315 304 294 277 263 247 239 241 240 243 246 241 236 237 236 234 231 229 230 228 225 225 226 226 224 222 220 220 220 220 219 217 214 213 211 208 207 207 207 208 205 203 199 175 161 177 185 187 192 199 204 204 204 203 203 202 196 194 198 197